Flag for Norway Weather past 2 weeks in Sandnes, Norway

Now
23 °F

Clear.


Feels Like: 23 °F
Forecast: 24 / 40 °F
Wind: 2 mph from Southeast

Location: Stavanger / Sola

Current Time: Dec 27, 2014 at 10:00:47 PM

Latest Report: Dec 27, 2014 at 9:20 PM


Visibility: 10 mi

Pressure: 30.12 "Hg

Humidity: 86%

Dew point: 19 °F

Location of SandnesLocation

Historic Weather in Sandnes — Graph

°F

Sandnes temperature yesterday

Maximum temperature yesterday: 39 °F (at 1:20 PM)
Minimum temperature yesterday: 27 °F (at 12:20 AM)
Average temperature yesterday: 33 °F

Past Weeks' High & Low Weather Summary

 TemperatureHumidityPressure
High50 °F (Dec 21, 9:20 PM)100% (Dec 18, 7:50 PM)30.30 "Hg (Dec 18, 7:50 PM)
Low23 °F (Dec 27, 8:20 PM)52% (Dec 15, 6:20 PM)28.97 "Hg (Dec 12, 8:20 PM)
Average40 °F82%29.52 "Hg
* Reported Dec 12 8:20 PM — Dec 27 8:50 PM, Sandnes, Weather by CustomWeather, © 2014

Note: Actual official high and low records may vary slightly from our data, if they occured in-between our weather recording intervals... More about our weather records

Advertising

Sandnes weather history for previous 24 hours

 ConditionsComfort  
Time TempWeatherWind HumidityBarometerVisibility
8:50 PM
Dec 27
25 °FClear.1 mph80%30.09 "Hg10 mi
8:20 PM23 °FClear.No wind86%30.09 "Hg10 mi
7:50 PM25 °FClear.3 mph80%30.07 "Hg10 mi
7:20 PM25 °FPassing clouds.2 mph80%30.04 "HgN/A
6:50 PM25 °FPassing clouds.1 mph80%30.04 "HgN/A
6:20 PM25 °FPassing clouds.1 mph80%30.04 "HgN/A
5:50 PM25 °FPassing clouds.2 mph80%30.01 "HgN/A
5:20 PM25 °FClear.1 mph80%30.01 "Hg10 mi
4:50 PM27 °FClear.1 mph80%29.98 "Hg10 mi
4:20 PM28 °FClear.2 mph74%29.98 "Hg10 mi
3:50 PM30 °FClear.1 mph69%29.95 "Hg10 mi
3:20 PM32 °FSunny.1 mph64%29.95 "Hg10 mi
2:50 PM32 °FSunny.2 mph64%29.95 "Hg10 mi
2:20 PM32 °FSunny.3 mph64%29.92 "Hg10 mi
1:50 PM34 °FSunny.5 mph60%29.92 "Hg10 mi
1:20 PM34 °FSunny.8 mph60%29.92 "Hg10 mi
12:50 PM34 °FSunny.9 mph60%29.92 "Hg10 mi
12:20 PM34 °FSunny.8 mph60%29.92 "Hg10 mi
11:50 AM32 °FSunny.8 mph69%29.92 "Hg10 mi
11:20 AM32 °FSunny.9 mph69%29.92 "Hg10 mi
10:50 AM30 °FSunny.6 mph75%29.89 "Hg10 mi
10:20 AM27 °FSunny.5 mph86%29.89 "Hg10 mi
9:50 AM28 °FSunny.8 mph80%29.89 "Hg10 mi
9:20 AM28 °FClear.6 mph80%29.89 "Hg10 mi
8:50 AM28 °FPassing clouds.6 mph80%29.89 "HgN/A
8:20 AM30 °FPassing clouds.5 mph80%29.89 "HgN/A
7:50 AM28 °FPassing clouds.7 mph93%29.89 "HgN/A
6:50 AM28 °FPassing clouds.7 mph93%29.89 "HgN/A
6:20 AM27 °FPassing clouds.10 mph93%29.89 "HgN/A
5:50 AM28 °FPassing clouds.7 mph93%29.89 "HgN/A
5:20 AM27 °FPassing clouds.1 mph100%29.89 "HgN/A
3:50 AM30 °FPassing clouds.6 mph93%29.92 "HgN/A
2:50 AM30 °FPassing clouds.1 mph93%29.92 "HgN/A
1:50 AM30 °FPassing clouds.8 mph100%29.92 "HgN/A
12:50 AM32 °FPassing clouds.8 mph93%29.95 "HgN/A
12:20 AM32 °FPassing clouds.8 mph93%29.95 "HgN/A
11:50 PM
Dec 26
32 °FPassing clouds.8 mph93%29.95 "HgN/A
11:20 PM32 °FPassing clouds.6 mph93%29.98 "HgN/A
10:50 PM32 °FPassing clouds.2 mph93%29.98 "HgN/A
10:20 PM32 °FPassing clouds.3 mph93%29.98 "HgN/A
Weather by CustomWeather, © 2014

See weather overviewHow to use our weather pages